TimeEDT,TemperatureF,Dew PointF,Humidity,Sea Level PressureIn,VisibilityMPH,Wind Direction,Wind SpeedMPH,Gust SpeedMPH,PrecipitationIn,Events,Conditions,WindDirDegrees,DateUTC
12:15 AM,73.4,64.2,73,30.08,10.0,SSW,9.2,-,N/A,,Clear,210,2013-06-17 04:15:00
12:35 AM,72.9,64.4,75,30.08,10.0,SSW,9.2,-,N/A,,Clear,210,2013-06-17 04:35:00
12:55 AM,72.7,64.4,75,30.08,10.0,SSW,10.4,-,N/A,,Clear,200,2013-06-17 04:55:00
1:15 AM,72.5,64.4,76,30.08,10.0,SSW,9.2,-,N/A,,Clear,200,2013-06-17 05:15:00
1:35 AM,72.1,64.4,77,30.08,10.0,SSW,10.4,-,N/A,,Clear,210,2013-06-17 05:35:00
1:55 AM,72.0,64.4,77,30.08,10.0,SSW,9.2,-,N/A,,Clear,210,2013-06-17 05:55:00
2:15 AM,71.6,64.6,78,30.07,10.0,SSW,8.1,-,N/A,,Clear,210,2013-06-17 06:15:00
2:35 AM,70.9,64.6,80,30.07,10.0,SW,6.9,-,N/A,,Clear,220,2013-06-17 06:35:00
2:55 AM,71.1,64.8,80,30.07,10.0,SW,8.1,-,N/A,,Clear,220,2013-06-17 06:55:00
3:15 AM,71.1,64.9,81,30.07,10.0,SSW,6.9,-,N/A,,Clear,210,2013-06-17 07:15:00
3:35 AM,70.9,64.8,81,30.07,10.0,SSW,8.1,-,N/A,,Clear,210,2013-06-17 07:35:00
3:55 AM,71.1,64.8,80,30.06,10.0,SSW,8.1,-,N/A,,Clear,210,2013-06-17 07:55:00
4:15 AM,71.1,64.8,80,30.07,10.0,SW,8.1,-,N/A,,Clear,220,2013-06-17 08:15:00
4:35 AM,70.9,64.8,81,30.07,10.0,SSW,8.1,-,N/A,,Clear,210,2013-06-17 08:35:00
4:55 AM,70.7,64.9,82,30.06,10.0,SSW,8.1,-,N/A,,Clear,210,2013-06-17 08:55:00
5:15 AM,70.7,65.1,82,30.07,10.0,SW,5.8,-,N/A,,Clear,220,2013-06-17 09:15:00
5:35 AM,70.2,65.1,84,30.07,10.0,SSW,6.9,-,N/A,,Clear,210,2013-06-17 09:35:00
5:55 AM,69.8,65.1,85,30.07,10.0,SW,5.8,-,N/A,,Clear,220,2013-06-17 09:55:00
6:15 AM,69.8,65.3,86,30.07,10.0,SW,5.8,-,N/A,,Clear,220,2013-06-17 10:15:00
6:35 AM,69.8,65.5,86,30.07,10.0,SW,5.8,-,N/A,,Clear,220,2013-06-17 10:35:00
6:55 AM,70.7,65.7,84,30.07,10.0,SSW,5.8,-,N/A,,Clear,210,2013-06-17 10:55:00
6:56 AM,69.8,66.2,88,30.07,10.0,SSW,5.8,-,N/A,,Clear,210,2013-06-17 10:56:00
7:56 AM,73.4,66.2,78,30.07,10.0,SW,6.9,-,N/A,,Clear,220,2013-06-17 11:56:00
8:56 AM,75.2,68.0,78,30.07,7.0,SW,8.1,-,N/A,,Clear,220,2013-06-17 12:56:00
9:56 AM,78.8,66.2,65,30.07,7.0,SW,8.1,-,N/A,,Clear,230,2013-06-17 13:56:00
10:56 AM,82.4,66.2,58,30.05,5.0,SW,9.2,-,N/A,,Haze,220,2013-06-17 14:56:00
11:56 AM,84.2,66.2,55,30.04,5.0,SSW,9.2,-,N/A,,Haze,210,2013-06-17 15:56:00
12:56 PM,86.0,66.2,51,30.03,10.0,SW,8.1,-,N/A,,Scattered Clouds,220,2013-06-17 16:56:00
1:56 PM,87.8,66.2,49,30.02,7.0,SSW,12.7,-,N/A,,Scattered Clouds,200,2013-06-17 17:56:00
2:56 PM,89.6,66.2,46,30.00,10.0,SW,11.5,16.1,N/A,,Clear,230,2013-06-17 18:56:00
3:56 PM,87.8,66.2,49,29.98,10.0,SSW,10.4,-,N/A,,Scattered Clouds,210,2013-06-17 19:56:00
4:56 PM,86.0,66.2,51,29.96,10.0,SSW,9.2,-,N/A,,Mostly Cloudy,200,2013-06-17 20:56:00
5:56 PM,78.8,71.6,78,29.98,1.5,WSW,12.7,16.1,N/A,Rain,Heavy Rain,250,2013-06-17 21:56:00
6:56 PM,77.0,73.4,89,29.99,10.0,South,6.9,-,N/A,,Clear,190,2013-06-17 22:56:00
8:56 PM,75.2,69.8,83,30.00,7.0,South,6.9,-,N/A,,Clear,170,2013-06-18 00:56:00
9:15 PM,74.5,70.5,87,30.00,10.0,South,4.6,-,N/A,,Clear,170,2013-06-18 01:15:00
9:35 PM,74.5,70.9,88,30.00,10.0,South,6.9,-,N/A,,Clear,180,2013-06-18 01:35:00
9:55 PM,74.7,71.6,90,30.01,10.0,South,9.2,-,N/A,,Scattered Clouds,180,2013-06-18 01:55:00
10:15 PM,75.2,72.0,90,30.02,10.0,South,8.1,-,N/A,,Scattered Clouds,180,2013-06-18 02:15:00
10:35 PM,75.2,72.5,91,30.02,10.0,South,8.1,-,N/A,,Scattered Clouds,180,2013-06-18 02:35:00
10:55 PM,75.2,72.1,90,30.01,10.0,South,8.1,-,N/A,,Clear,180,2013-06-18 02:55:00
11:15 PM,75.2,71.6,89,30.02,10.0,SSW,6.9,-,N/A,,Scattered Clouds,200,2013-06-18 03:15:00
11:35 PM,75.4,69.4,82,30.02,10.0,SSW,10.4,-,N/A,,Clear,200,2013-06-18 03:35:00
11:55 PM,75.0,68.4,80,30.01,10.0,South,9.2,-,N/A,,Scattered Clouds,180,2013-06-18 03:55:00